Precipitable_Water
0.81 0.76 0.76 0.73 0.69 0.64 0.56 0.54 0.51 0.47 0.44 0.43 0.44 0.43 0.43 0.39 0.38 0.35 0.33 0.33 0.30 0.29 0.29 0.27 0.26 0.25 0.23 0.22 0.22 0.21 0.19 0.19 0.16 0.18 0.16 0.17 0.17 0.18 0.20 0.22 0.23 0.23 0.25
0.78 0.78 0.73 0.70 0.67 0.61 0.55 0.53 0.51 0.47 0.45 0.44 0.43 0.43 0.42 0.40 0.39 0.35 0.33 0.32 0.29 0.26 0.26 0.26 0.25 0.24 0.21 0.22 0.21 0.19 0.19 0.21 0.19 0.15 0.15 0.15 0.16 0.17 0.19 0.20 0.20 0.20 0.19
0.73 0.69 0.66 0.66 0.63 0.57 0.54 0.52 0.50 0.48 0.45 0.44 0.43 0.42 0.42 0.41 0.40 0.37 0.34 0.32 0.29 0.27 0.27 0.25 0.23 0.21 0.19 0.20 0.19 0.17 0.17 0.18 0.17 0.14 0.15 0.16 0.16 0.17 0.17 0.20 0.21 0.22 0.20
0.68 0.66 0.62 0.60 0.59 0.56 0.54 0.51 0.49 0.49 0.45 0.44 0.42 0.44 0.44 0.43 0.41 0.38 0.35 0.31 0.26 0.25 0.24 0.23 0.21 0.19 0.19 0.18 0.16 0.15 0.15 0.15 0.16 0.16 0.17 0.17 0.17 0.17 0.17 0.15 0.15 0.20 0.19
0.66 0.65 0.62 0.58 0.57 0.54 0.52 0.50 0.50 0.48 0.46 0.44 0.44 0.45 0.44 0.44 0.41 0.36 0.33 0.27 0.23 0.22 0.22 0.21 0.19 0.19 0.18 0.16 0.14 0.14 0.15 0.15 0.16 0.17 0.18 0.18 0.17 0.17 0.16 0.16 0.15 0.17 0.19
0.68 0.65 0.60 0.54 0.51 0.51 0.50 0.49 0.49 0.47 0.46 0.43 0.44 0.44 0.41 0.41 0.39 0.36 0.30 0.26 0.24 0.23 0.23 0.24 0.23 0.20 0.17 0.16 0.17 0.19 0.18 0.17 0.18 0.18 0.18 0.18 0.18 0.18 0.18 0.17 0.16 0.15 0.14
0.69 0.64 0.58 0.55 0.50 0.49 0.47 0.52 0.48 0.50 0.48 0.49 0.46 0.42 0.47 0.41 0.38 0.31 0.28 0.28 0.26 0.26 0.26 0.24 0.22 0.22 0.19 0.19 0.21 0.21 0.21 0.22 0.22 0.21 0.19 0.19 0.19 0.20 0.19 0.17 0.17 0.16 0.15
0.65 0.65 0.61 0.54 0.49 0.47 0.44 0.44 0.48 0.53 0.53 0.49 0.46 0.55 0.47 0.40 0.34 0.32 0.31 0.28 0.26 0.26 0.26 0.24 0.23 0.22 0.21 0.20 0.20 0.21 0.22 0.24 0.23 0.22 0.21 0.22 0.23 0.22 0.19 0.19 0.18 0.17 0.17
0.65 0.63 0.60 0.55 0.51 0.49 0.46 0.45 0.45 0.46 0.46 0.45 0.55 0.51 0.42 0.37 0.35 0.37 0.30 0.27 0.25 0.25 0.25 0.24 0.22 0.23 0.23 0.20 0.20 0.21 0.22 0.25 0.26 0.25 0.25 0.25 0.24 0.22 0.20 0.18 0.16 0.14 0.13
0.59 0.61 0.60 0.58 0.55 0.52 0.50 0.48 0.49 0.54 0.51 0.51 0.46 0.41 0.40 0.36 0.41 0.35 0.31 0.29 0.26 0.25 0.25 0.24 0.24 0.23 0.24 0.22 0.20 0.20 0.20 0.22 0.23 0.22 0.22 0.21 0.20 0.20 0.19 0.18 0.16 0.14 0.13
0.62 0.64 0.59 0.58 0.55 0.53 0.52 0.52 0.55 0.52 0.48 0.43 0.43 0.41 0.38 0.43 0.41 0.39 0.36 0.31 0.28 0.26 0.24 0.23 0.23 0.24 0.24 0.22 0.21 0.20 0.21 0.23 0.21 0.21 0.20 0.19 0.19 0.18 0.18 0.18 0.17 0.16 0.14
0.61 0.60 0.59 0.59 0.57 0.57 0.57 0.56 0.53 0.51 0.46 0.46 0.42 0.37 0.39 0.42 0.41 0.43 0.37 0.35 0.31 0.27 0.25 0.24 0.23 0.23 0.23 0.22 0.21 0.22 0.22 0.21 0.20 0.19 0.18 0.18 0.17 0.17 0.17 0.16 0.16 0.15 0.15
0.61 0.61 0.60 0.61 0.59 0.60 0.56 0.53 0.49 0.48 0.44 0.43 0.40 0.39 0.41 0.42 0.45 0.42 0.39 0.34 0.32 0.29 0.28 0.26 0.25 0.24 0.24 0.23 0.22 0.21 0.20 0.20 0.20 0.19 0.18 0.18 0.18 0.18 0.17 0.16 0.15 0.15 0.14
0.61 0.61 0.59 0.58 0.57 0.56 0.54 0.50 0.49 0.46 0.41 0.41 0.39 0.38 0.41 0.42 0.43 0.43 0.38 0.36 0.36 0.31 0.28 0.28 0.26 0.24 0.23 0.23 0.22 0.20 0.20 0.21 0.21 0.20 0.19 0.19 0.19 0.17 0.16 0.15 0.13 0.12 0.11
0.60 0.58 0.57 0.55 0.53 0.50 0.49 0.49 0.47 0.44 0.45 0.43 0.42 0.41 0.40 0.39 0.40 0.39 0.37 0.36 0.31 0.29 0.28 0.25 0.23 0.21 0.21 0.22 0.21 0.20 0.22 0.22 0.21 0.21 0.21 0.20 0.18 0.16 0.15 0.15 0.13 0.12 0.10
0.54 0.53 0.53 0.50 0.49 0.48 0.46 0.43 0.45 0.44 0.46 0.45 0.45 0.43 0.41 0.39 0.39 0.38 0.36 0.34 0.31 0.27 0.23 0.22 0.21 0.21 0.20 0.20 0.20 0.21 0.23 0.23 0.23 0.22 0.22 0.20 0.18 0.16 0.14 0.13 0.13 0.11 0.10
0.53 0.49 0.49 0.46 0.45 0.44 0.43 0.40 0.37 0.40 0.43 0.42 0.43 0.41 0.39 0.36 0.36 0.35 0.31 0.28 0.26 0.24 0.24 0.22 0.20 0.20 0.19 0.20 0.21 0.23 0.23 0.24 0.24 0.22 0.21 0.20 0.19 0.17 0.14 0.13 0.12 0.11 0.10
0.52 0.49 0.46 0.46 0.45 0.43 0.41 0.40 0.39 0.36 0.35 0.36 0.40 0.39 0.38 0.35 0.32 0.32 0.31 0.29 0.25 0.26 0.23 0.21 0.20 0.19 0.21 0.22 0.26 0.25 0.25 0.25 0.23 0.22 0.21 0.20 0.19 0.18 0.15 0.12 0.11 0.10 0.09
0.50 0.47 0.46 0.45 0.44 0.42 0.42 0.40 0.39 0.37 0.36 0.34 0.34 0.35 0.34 0.33 0.32 0.32 0.31 0.26 0.25 0.24 0.23 0.22 0.22 0.23 0.25 0.28 0.27 0.26 0.25 0.24 0.23 0.22 0.22 0.20 0.19 0.18 0.16 0.12 0.10 0.10 0.09
0.50 0.49 0.46 0.44 0.43 0.42 0.41 0.39 0.38 0.37 0.34 0.32 0.31 0.29 0.31 0.30 0.27 0.27 0.29 0.28 0.25 0.24 0.23 0.23 0.24 0.27 0.29 0.28 0.27 0.27 0.25 0.24 0.23 0.22 0.21 0.20 0.19 0.18 0.16 0.12 0.10 0.09 0.09
0.49 0.48 0.46 0.45 0.44 0.43 0.41 0.39 0.37 0.34 0.31 0.30 0.29 0.31 0.31 0.30 0.30 0.30 0.29 0.28 0.27 0.27 0.26 0.27 0.30 0.31 0.30 0.29 0.27 0.26 0.26 0.25 0.23 0.22 0.22 0.20 0.19 0.17 0.15 0.11 0.10 0.09 0.09
0.48 0.48 0.46 0.44 0.43 0.42 0.39 0.35 0.33 0.31 0.31 0.30 0.31 0.33 0.34 0.33 0.31 0.30 0.30 0.30 0.31 0.32 0.33 0.32 0.31 0.31 0.30 0.28 0.27 0.26 0.25 0.24 0.24 0.23 0.21 0.20 0.18 0.16 0.14 0.10 0.09 0.09 0.08
0.48 0.46 0.45 0.43 0.40 0.38 0.35 0.34 0.33 0.32 0.32 0.32 0.32 0.32 0.32 0.31 0.31 0.31 0.32 0.34 0.35 0.35 0.35 0.33 0.31 0.30 0.29 0.28 0.28 0.27 0.26 0.25 0.24 0.23 0.21 0.19 0.16 0.15 0.11 0.09 0.09 0.08 0.08
0.46 0.44 0.41 0.39 0.38 0.36 0.35 0.34 0.34 0.33 0.33 0.32 0.32 0.31 0.31 0.33 0.34 0.35 0.35 0.35 0.35 0.34 0.33 0.32 0.31 0.29 0.28 0.28 0.28 0.27 0.26 0.25 0.24 0.22 0.20 0.17 0.14 0.11 0.09 0.08 0.08 0.08 0.07
0.45 0.42 0.40 0.38 0.37 0.36 0.34 0.33 0.33 0.33 0.33 0.32 0.32 0.33 0.34 0.35 0.35 0.35 0.34 0.34 0.33 0.32 0.31 0.30 0.29 0.28 0.27 0.26 0.25 0.24 0.24 0.23 0.22 0.19 0.16 0.14 0.10 0.09 0.09 0.08 0.08 0.07 0.07
0.45 0.43 0.40 0.39 0.38 0.36 0.34 0.33 0.32 0.32 0.32 0.33 0.34 0.34 0.34 0.34 0.34 0.33 0.32 0.32 0.30 0.29 0.28 0.28 0.27 0.26 0.25 0.24 0.23 0.22 0.21 0.19 0.16 0.14 0.12 0.09 0.09 0.09 0.08 0.08 0.07 0.07 0.07
Wind_Speed
32 28 30 27 27 26 25 23 22 21 20 19 18 18 17 16 16 15 15 15 15 15 14 14 14 14 14 14 13 12 12 12 12 13 13 12 12 12 12 13 14 14 15
25 24 25 25 26 25 24 23 22 21 20 20 19 18 18 17 16 16 15 15 15 15 15 14 14 14 13 13 12 12 11 12 12 12 12 12 11 12 13 14 14 15 17
22 23 23 24 24 23 23 23 23 21 20 20 19 19 18 17 16 16 15 15 15 15 15 15 14 14 13 13 12 11 11 11 12 11 12 12 12 13 14 15 16 17 18
24 22 22 22 23 23 23 23 23 22 21 20 20 20 19 18 18 17 16 15 15 15 14 13 13 13 13 12 12 12 11 11 11 11 11 11 13 14 15 16 17 18 18
24 23 23 22 22 22 23 23 22 22 22 21 21 21 20 19 19 18 16 15 14 13 13 12 12 12 12 12 12 12 12 11 11 11 11 12 13 14 16 17 18 19 18
25 23 21 21 21 22 22 22 22 22 23 23 24 23 22 21 20 18 18 16 15 14 13 13 12 12 12 12 11 11 12 12 12 12 12 13 14 15 17 18 19 19 19
26 24 22 21 21 21 21 22 21 23 22 22 25 26 24 22 21 19 18 17 16 16 15 14 13 12 13 13 12 12 12 12 12 12 13 14 15 16 18 19 20 20 21
24 25 23 22 21 21 21 22 22 23 23 23 24 23 25 23 23 21 20 19 18 17 16 15 15 14 14 14 13 13 13 13 13 13 14 15 16 17 19 20 21 22 22
24 25 24 23 21 21 21 21 22 22 22 24 23 24 25 24 24 23 21 20 19 18 17 16 16 16 16 15 15 15 14 13 14 14 15 16 17 19 21 22 22 23 23
25 25 24 23 23 22 21 21 21 22 22 23 24 25 25 25 24 23 22 21 20 19 18 17 16 16 17 17 17 16 16 16 16 17 18 18 19 21 22 23 24 24 24
24 25 25 24 23 22 20 19 19 19 19 20 22 24 25 25 24 24 23 23 21 20 19 18 17 17 17 18 18 18 18 17 18 18 19 20 21 22 23 24 24 25 25
23 24 24 23 22 21 22 19 19 19 19 20 20 21 22 23 24 23 23 23 22 21 20 18 17 17 17 18 18 18 18 18 19 19 20 21 23 24 25 25 26 26 26
23 23 23 22 21 21 22 21 20 20 20 21 21 22 23 23 25 25 24 23 22 22 20 19 19 18 18 18 18 18 18 19 19 20 21 22 24 25 26 27 27 28 28
22 20 21 20 20 20 20 20 19 20 20 20 20 21 21 22 23 24 24 24 23 23 22 20 20 20 19 19 19 19 19 20 20 21 22 24 25 26 27 28 28 29 29
20 19 19 18 17 17 17 18 18 19 19 19 20 20 21 21 22 22 23 24 24 23 22 22 21 21 21 20 20 20 20 21 21 22 23 24 26 27 27 28 29 29 29
17 17 17 16 15 15 14 14 15 15 15 17 18 18 19 19 20 21 21 22 22 23 22 22 22 22 22 21 21 21 21 22 23 23 24 26 27 27 28 29 30 30 30
16 16 15 15 14 13 12 12 13 14 14 14 15 16 16 16 17 19 19 20 20 21 21 21 21 21 21 21 21 21 22 23 23 24 25 27 28 29 29 30 31 31 31
17 16 15 14 14 13 13 12 12 12 13 13 13 14 15 15 16 17 18 18 19 20 21 21 21 21 21 22 22 23 23 24 25 26 27 28 29 30 31 31 32 32 32
16 15 15 14 14 13 13 13 13 13 13 13 13 13 14 15 16 17 18 18 18 19 19 20 20 21 21 22 24 24 25 26 27 27 29 30 30 31 32 32 33 33 33
16 15 15 14 14 14 13 14 14 14 14 14 14 14 14 14 15 16 17 17 17 18 18 19 20 21 23 24 25 26 27 28 28 29 30 31 32 33 33 33 33 34 34
15 15 15 15 15 15 14 14 14 15 15 15 15 15 15 14 15 16 17 17 18 18 19 20 21 22 24 25 26 27 28 29 30 31 32 32 33 34 34 34 34 34 35
15 15 15 15 15 14 14 14 14 15 15 14 14 15 15 15 15 15 16 17 18 19 20 21 22 23 24 25 27 28 29 30 32 32 33 33 34 34 35 34 34 35 35
16 15 14 14 14 14 15 14 14 15 15 15 15 15 15 15 15 15 16 17 18 20 21 22 23 24 25 26 28 29 31 32 33 32 33 33 34 34 34 34 34 35 36
16 16 15 15 15 15 15 15 15 15 15 15 15 15 15 15 15 16 17 17 19 20 21 22 23 25 26 28 29 30 31 31 31 31 32 33 34 33 33 34 34 35 36
16 16 16 16 15 15 15 15 15 15 15 15 15 15 15 15 15 16 17 18 19 20 21 23 24 25 26 28 28 28 28 28 29 30 31 32 32 32 32 33 34 34 34
16 16 16 16 16 15 15 15 14 14 14 14 14 14 14 14 15 15 16 17 19 21 22 23 23 24 25 25 26 26 27 29 30 30 30 30 30 31 32 32 32 32 31
Wind_Direction
215 216 214 215 214 217 218 219 221 226 229 232 236 238 240 247 254 260 262 263 265 265 266 268 271 271 272 270 266 263 263 268 271 277 284 288 291 295 301 306 309 313 316
215 215 215 215 213 215 219 218 223 226 230 232 235 236 241 247 253 258 261 262 262 262 265 267 268 269 268 264 261 259 263 270 274 276 283 287 291 297 300 304 309 312 314
212 209 210 211 214 215 216 219 223 226 230 232 233 236 241 247 253 258 260 262 261 262 263 265 266 263 262 258 255 256 265 272 276 276 280 286 291 299 302 302 303 307 313
209 209 210 215 214 216 219 221 224 229 231 233 236 237 243 248 252 254 258 260 259 259 260 262 263 260 256 253 250 258 265 272 276 278 283 289 294 299 302 305 304 304 308
207 212 217 220 219 219 219 222 227 231 234 236 237 239 244 248 251 251 253 255 253 253 254 257 260 257 252 248 250 259 267 271 275 281 285 290 297 301 305 306 305 304 303
213 215 218 217 220 220 222 227 231 233 236 238 239 239 242 247 244 246 247 249 247 245 248 253 259 257 249 245 251 261 268 271 275 281 285 291 297 301 305 307 308 306 304
214 216 218 220 219 221 225 228 234 231 237 243 240 241 241 241 239 243 243 245 242 244 246 249 256 255 248 247 255 263 269 274 278 282 286 292 297 302 304 307 308 306 304
215 217 218 218 219 222 227 230 231 235 241 241 242 239 232 235 236 237 240 242 242 244 245 250 253 255 251 251 258 264 269 275 277 283 289 294 298 302 305 306 307 306 303
222 217 219 219 221 223 227 230 234 240 242 240 240 238 229 233 235 235 238 239 240 241 244 249 252 255 252 253 259 264 269 275 277 284 291 295 299 304 306 307 308 308 305
222 217 219 220 222 225 229 233 236 242 242 242 239 235 234 235 235 234 237 239 238 239 243 248 253 257 254 256 261 264 267 272 277 283 290 295 299 303 306 306 306 306 305
217 217 218 219 222 225 225 229 237 239 239 239 239 236 235 235 235 236 237 238 238 238 242 249 254 257 258 259 262 266 269 272 278 284 289 294 298 302 304 305 305 305 304
214 214 215 218 220 223 225 232 240 239 237 238 236 232 233 233 234 236 235 237 237 238 242 249 254 258 262 261 263 265 268 273 280 285 289 294 298 301 302 303 303 304 303
208 208 211 215 220 225 223 235 240 238 239 239 237 236 237 237 237 237 234 234 236 239 244 248 252 259 262 262 263 266 270 275 280 285 290 294 297 300 302 302 302 302 302
201 205 207 212 218 224 231 235 237 239 238 238 236 234 236 237 236 234 234 237 238 240 243 248 255 261 262 263 265 268 272 276 281 286 290 295 298 301 302 302 302 302 301
195 200 205 210 215 221 230 234 236 238 241 236 235 235 235 235 235 234 234 236 238 239 243 250 256 259 261 263 266 269 273 278 283 287 292 296 299 301 302 302 302 302 302
196 200 202 208 212 218 224 229 232 236 235 235 234 232 232 236 234 233 232 234 237 239 247 251 255 257 260 263 266 270 274 278 284 288 293 297 299 301 302 302 302 302 302
196 196 199 203 209 215 221 226 229 230 231 230 228 228 228 231 231 232 235 237 238 240 249 252 255 257 261 264 267 271 275 279 284 289 293 297 299 301 302 303 303 302 302
196 196 202 208 213 218 224 226 227 226 226 226 228 229 232 234 235 236 236 238 242 248 251 253 256 259 262 266 270 273 277 281 284 289 293 297 299 301 302 302 302 302 302
199 205 211 216 220 223 228 230 229 227 227 229 232 238 238 239 240 239 238 244 247 250 253 256 259 262 266 270 274 277 279 281 285 289 293 295 298 300 301 302 302 301 302
206 210 215 220 223 228 232 231 229 228 229 233 236 240 242 242 241 241 243 248 250 254 256 259 263 267 271 275 278 279 280 282 285 288 292 295 297 299 301 301 301 301 302
213 215 218 224 228 231 232 230 229 230 234 237 241 244 243 245 246 246 247 250 253 257 262 266 269 272 276 279 281 281 282 284 285 288 291 293 296 298 300 300 300 301 302
216 219 225 229 230 230 227 229 232 235 237 240 245 246 245 248 250 250 252 255 259 263 268 272 275 277 280 282 284 284 285 286 287 288 290 293 295 297 299 299 300 301 302
219 223 227 229 229 227 228 233 237 239 241 243 243 246 246 248 251 254 258 263 267 270 273 275 278 281 282 284 286 286 288 288 289 288 290 293 295 297 298 299 299 300 301
225 228 229 229 229 231 234 238 240 240 241 243 244 245 247 251 255 260 266 270 274 276 277 279 281 284 285 288 289 290 289 290 289 289 291 293 295 296 297 298 300 301 302
230 229 228 230 233 235 237 239 240 241 241 242 243 245 249 254 260 265 270 274 278 281 283 284 286 287 289 291 292 292 292 291 292 292 293 294 295 296 297 299 301 302 303
226 228 230 233 237 238 238 239 238 238 238 240 243 247 252 257 264 270 275 280 283 286 288 289 290 290 292 294 294 294 294 294 294 294 294 295 296 297 299 300 301 302 303